| time (UTC) | temp C | wind direction | speed KPH | gust KPH | rain 1hr cm | rain 24hr cm | rain mn cm | humidity % | barometer mb |
| 20260505004003 | 12 | 235 | 30.6 | 43.5 | 0.00 | 0.00 | 0.00 | 92 | |
| 20260505003003 | 12 | 235 | 37.0 | 46.7 | 0.00 | 0.00 | 0.00 | 92 | |
| 20260505002003 | 12 | 230 | 33.8 | 46.7 | 0.00 | 0.00 | 0.00 | 93 | |
| 20260505001003 | 12 | 225 | 40.2 | 48.3 | 0.00 | 0.00 | 0.00 | 92 | |
| 20260505000004 | 12 | 230 | 38.6 | 45.1 | 0.00 | 0.00 | 0.00 | 93 | |
| 20260504235002 | 12 | 225 | 37.0 | 41.8 | 0.00 | 0.00 | 0.00 | 93 | |
| 20260504234002 | 12 | 225 | 37.0 | 48.3 | 0.00 | 0.00 | 0.00 | 92 | |
| 20260504233003 | 12 | 230 | 35.4 | 45.1 | 0.00 | 0.00 | 0.00 | 92 | |
| 20260504232003 | 12 | 230 | 38.6 | 46.7 | 0.00 | 0.00 | 0.00 | 92 | |
| 20260504231003 | 12 | 230 | 40.2 | 48.3 | 0.00 | 0.00 | 0.00 | 92 | |
| 20260504230004 | 12 | 225 | 41.8 | 48.3 | 0.00 | 0.00 | 0.00 | 93 | |
| 20260504225003 | 12 | 225 | 35.4 | 45.1 | 0.00 | 0.00 | 0.00 | 93 | |
| 20260504224002 | 12 | 225 | 40.2 | 45.1 | 0.00 | 0.00 | 0.00 | 93 | |
| 20260504223002 | 12 | 230 | 33.8 | 41.8 | 0.00 | 0.00 | 0.00 | 93 | |
| 20260504222003 | 12 | 230 | 35.4 | 43.5 | 0.00 | 0.00 | 0.00 | 93 | |
| 20260504221003 | 12 | 230 | 33.8 | 40.2 | 0.00 | 0.00 | 0.00 | 91 | |
| 20260504220003 | 12 | 230 | 38.6 | 43.5 | 0.00 | 0.00 | 0.00 | 90 | |
| 20260504215003 | 12 | 230 | 32.2 | 43.5 | 0.00 | 0.00 | 0.00 | 90 | |
| 20260504214003 | 12 | 230 | 37.0 | 43.5 | 0.00 | 0.00 | 0.00 | 90 | |
| 20260504213003 | 12 | 230 | 38.6 | 43.5 | 0.00 | 0.00 | 0.00 | 89 | |
| 20260504212003 | 12 | 230 | 37.0 | 45.1 | 0.00 | 0.00 | 0.00 | 90 | |
| 20260504211002 | 12 | 230 | 33.8 | 40.2 | 0.00 | 0.00 | 0.00 | 88 | |
| 20260504210004 | 12 | 230 | 33.8 | 40.2 | 0.00 | 0.00 | 0.00 | 88 | |
| 20260504205003 | 12 | 230 | 33.8 | 40.2 | 0.00 | 0.00 | 0.00 | 88 | |
| 20260504204005 | 12 | 230 | 32.2 | 41.8 | 0.00 | 0.00 | 0.00 | 89 | |
| 20260504203003 | 12 | 230 | 37.0 | 40.2 | 0.00 | 0.00 | 0.00 | 88 | |
| 20260504202002 | 12 | 230 | 35.4 | 40.2 | 0.00 | 0.00 | 0.00 | 87 | |
| 20260504201002 | 12 | 230 | 33.8 | 40.2 | 0.00 | 0.00 | 0.00 | 86 | |
| 20260504200003 | 12 | 230 | 35.4 | 41.8 | 0.00 | 0.00 | 0.00 | 87 | |
| 20260504195003 | 12 | 230 | 32.2 | 40.2 | 0.00 | 0.00 | 0.00 | 87 | |
| 20260504194003 | 12 | 230 | 33.8 | 40.2 | 0.00 | 0.00 | 0.00 | 87 | |
| 20260504193003 | 12 | 230 | 33.8 | 37.0 | 0.00 | 0.00 | 0.00 | 88 | |
| 20260504192003 | 12 | 225 | 29.0 | 40.2 | 0.00 | 0.00 | 0.00 | 89 | |
| 20260504191003 | 12 | 230 | 33.8 | 37.0 | 0.00 | 0.00 | 0.00 | 88 | |
| 20260504190002 | 12 | 235 | 29.0 | 32.2 | 0.00 | 0.00 | 0.00 | 88 | |
| 20260504185002 | 12 | 230 | 27.4 | 33.8 | 0.00 | 0.00 | 0.00 | 89 | |
| 20260504184003 | 12 | 230 | 24.1 | 33.8 | 0.00 | 0.00 | 0.00 | 89 | |
| 20260504183003 | 12 | 230 | 29.0 | 37.0 | 0.00 | 0.00 | 0.00 | 89 | |
| 20260504182003 | 12 | 235 | 25.7 | 30.6 | 0.00 | 0.00 | 0.00 | 89 | |
| 20260504181003 | 12 | 230 | 27.4 | 33.8 | 0.00 | 0.00 | 0.00 | 90 | |
| 20260504180003 | 12 | 235 | 29.0 | 32.2 | 0.00 | 0.00 | 0.00 | 90 | |
| 20260504175002 | 12 | 235 | 25.7 | 32.2 | 0.00 | 0.00 | 0.00 | 91 | |
| 20260504174003 | 12 | 225 | 27.4 | 32.2 | 0.00 | 0.00 | 0.00 | 90 | |
| 20260504173003 | 12 | 230 | 24.1 | 30.6 | 0.00 | 0.00 | 0.00 | 90 | |
| 20260504172003 | 12 | 235 | 22.5 | 27.4 | 0.00 | 0.00 | 0.00 | 90 | |
| 20260504171003 | 12 | 225 | 19.3 | 27.4 | 0.00 | 0.00 | 0.00 | 92 | |
| 20260504151003 | 11 | 225 | 24.1 | 27.4 | 0.00 | 0.00 | 0.00 | 98 | |
| 20260504141003 | 11 | 215 | 25.7 | 32.2 | 0.00 | 0.00 | 0.00 | 99 | |
| 20260504082003 | 10 | 220 | 27.4 | 40.2 | 0.00 | 0.00 | 0.00 | 99 | |
| 20260504081002 | 10 | 225 | 32.2 | 40.2 | 0.00 | 0.00 | 0.00 | 99 | |
| 20260504050003 | 23 | 70 | 9.7 | 16.1 | 0.00 | 0.00 | 0.00 | 19 | |
| 20260504045003 | 24 | 70 | 8.0 | 14.5 | 0.00 | 0.00 | 0.00 | 15 | |
| 20260504044003 | 24 | 80 | 12.9 | 16.1 | 0.00 | 0.00 | 0.00 | 15 | |
| 20260504043004 | 24 | 85 | 12.9 | 16.1 | 0.00 | 0.00 | 0.00 | 18 | |
| 20260504042002 | 24 | 95 | 9.7 | 12.9 | 0.00 | 0.00 | 0.00 | 18 | |
| 20260504041002 | 25 | 50 | 6.4 | 9.7 | 0.00 | 0.00 | 0.00 | 16 | |
| 20260504040003 | 24 | 90 | 3.2 | 11.3 | 0.00 | 0.00 | 0.00 | 18 | |
| 20260504035003 | 25 | 15 | 8.0 | 19.3 | 0.00 | 0.00 | 0.00 | 19 | |
| 20260504034003 | 24 | 360 | 1.6 | 16.1 | 0.00 | 0.00 | 0.00 | 22 | |
| 20260504033008 | 25 | 30 | 3.2 | 20.9 | 0.00 | 0.00 | 0.00 | 21 | |
| 20260504032003 | 25 | 355 | 12.9 | 24.1 | 0.00 | 0.00 | 0.00 | 20 | |
| 20260504031002 | 25 | 340 | 8.0 | 20.9 | 0.00 | 0.00 | 0.00 | 21 | |
| 20260504030003 | 25 | 35 | 3.2 | 24.1 | 0.00 | 0.00 | 0.00 | 23 | |
| 20260504025003 | 25 | 360 | 8.0 | 22.5 | 0.00 | 0.00 | 0.00 | 22 | |
| 20260504024003 | 26 | 360 | 8.0 | 16.1 | 0.00 | 0.00 | 0.00 | 23 | |
| 20260504023003 | 26 | 10 | 6.4 | 17.7 | 0.00 | 0.00 | 0.00 | 24 | |
| 20260504022003 | 24 | 345 | 9.7 | 27.4 | 0.00 | 0.00 | 0.00 | 31 | |
| 20260504021002 | 24 | 345 | 9.7 | 27.4 | 0.00 | 0.00 | 0.00 | 31 | |
| 20260504020003 | 25 | 340 | 25.7 | 30.6 | 0.00 | 0.00 | 0.00 | 27 | |
| 20260504015003 | 25 | 335 | 27.4 | 30.6 | 0.00 | 0.00 | 0.00 | 27 | |
| 20260504014003 | 26 | 335 | 27.4 | 32.2 | 0.00 | 0.00 | 0.00 | 27 | |
| 20260504013003 | 26 | 330 | 27.4 | 32.2 | 0.00 | 0.00 | 0.00 | 26 | |
| 20260504012002 | 26 | 335 | 29.0 | 33.8 | 0.00 | 0.00 | 0.00 | 26 | |
| 20260504011002 | 26 | 335 | 32.2 | 35.4 | 0.00 | 0.00 | 0.00 | 24 | |
| 20260504010003 | 27 | 335 | 35.4 | 37.0 | 0.00 | 0.00 | 0.00 | 23 | |
| 20260504005003 | 27 | 335 | 29.0 | 33.8 | 0.00 | 0.00 | 0.00 | 23 |